Temp
77 78 79 77 79 60 69 71 63 67 78 72 64 62 64 63 60 57 68 65 70 79 80 83 84 82 83 86 87 87 87 88 86 86 87 87 87 87 86 86 86 85 86 85 85 85 86 86 85 85 83 84 83 83 83 82 82 83 82 81 82 82 82
77 83 81 79 80 80 71 63 70 78 80 77 66 56 59 58 54 58 64 62 65 66 63 79 82 81 84 84 84 87 86 87 86 86 86 86 87 87 87 86 86 86 86 86 87 88 88 87 87 85 83 85 84 84 84 83 82 81 82 82 82 82 81
75 79 80 74 80 82 75 72 82 69 58 57 64 61 50 51 52 55 60 64 65 68 68 76 75 78 81 82 83 84 85 86 86 87 87 87 88 88 87 87 86 86 87 87 86 88 90 89 86 86 86 86 87 86 86 87 84 85 84 85 84 83 83
73 75 75 62 68 76 77 80 74 80 72 65 58 61 62 61 55 54 57 60 60 71 73 79 79 79 82 85 83 83 86 88 88 88 90 88 86 86 87 88 88 88 88 89 90 89 90 89 88 89 89 89 89 88 86 86 87 85 85 84 83 82 84
73 64 70 68 70 66 68 70 69 70 71 75 73 68 64 60 56 56 56 56 65 73 81 81 81 83 83 84 84 82 84 88 90 90 90 89 87 86 87 88 88 89 89 91 91 91 91 92 91 91 91 90 90 90 89 88 86 86 86 86 85 83 84
65 69 75 77 76 76 72 71 68 70 68 62 58 56 69 67 61 52 56 55 67 77 80 82 84 86 87 86 85 85 87 88 88 89 91 90 88 87 88 90 91 91 90 90 92 91 91 91 91 91 91 91 91 90 90 90 89 88 88 86 84 83 84
67 72 76 81 81 80 78 76 72 75 74 71 63 53 58 65 67 68 65 59 64 80 78 82 85 87 89 89 87 86 88 88 90 89 92 91 89 89 90 90 92 92 90 90 90 89 88 89 89 91 91 91 91 91 91 91 90 89 90 89 87 84 84
70 74 76 76 77 76 73 75 78 75 71 72 69 67 67 63 64 60 62 56 66 77 77 82 86 85 88 87 87 85 89 89 89 87 88 87 87 87 89 90 92 91 91 89 88 87 86 86 87 89 90 90 91 91 91 92 91 91 91 91 89 85 84
59 65 72 73 73 74 70 70 74 75 76 76 75 73 64 63 64 65 61 54 65 76 75 76 78 81 84 86 87 85 85 86 87 87 86 86 85 85 87 87 88 88 90 87 85 86 84 85 88 88 89 89 91 90 91 92 92 92 91 91 90 88 87
45 45 48 55 61 63 62 64 65 68 71 72 69 63 61 56 63 65 62 63 70 77 74 76 78 79 79 83 86 87 84 82 85 86 84 82 82 82 84 85 86 86 85 85 84 84 84 86 88 86 86 89 91 91 91 93 92 92 92 92 91 88 88
54 52 50 53 55 59 60 61 62 63 66 68 71 69 63 58 61 62 64 67 70 73 78 77 81 79 81 84 87 86 85 85 83 80 80 82 82 82 85 84 85 84 84 83 84 84 86 89 88 88 89 89 90 88 89 92 93 92 91 90 89 89 89
52 55 55 58 57 53 56 57 60 63 62 63 63 64 62 66 63 57 65 67 67 71 76 78 78 81 80 81 83 85 83 83 84 84 80 79 82 83 82 82 82 82 82 83 83 83 86 87 88 89 90 90 89 88 89 91 93 92 91 89 88 87 86
55 57 58 59 57 57 57 58 58 59 62 61 60 60 64 65 64 61 67 67 65 71 78 81 82 81 81 85 85 86 86 85 83 79 81 83 86 86 85 82 81 82 82 82 83 84 85 87 87 88 89 89 88 88 90 90 92 92 90 88 87 87 86
54 56 58 59 56 57 57 58 59 60 61 61 62 62 65 65 62 65 68 68 69 75 79 82 85 86 86 86 83 82 82 88 84 83 82 86 88 88 86 84 84 82 82 83 82 83 83 85 85 88 88 87 89 89 90 91 90 92 90 88 86 87 86
52 56 58 58 57 56 55 59 60 61 62 62 63 64 65 65 64 67 68 65 66 76 77 80 86 86 84 80 82 87 86 86 86 85 87 87 86 87 86 84 84 83 83 83 83 83 83 83 85 86 87 88 89 92 92 92 90 91 91 87 87 87 85
50 55 55 56 58 58 58 58 60 61 61 60 63 61 66 64 62 65 67 64 66 76 78 80 80 78 77 80 81 83 83 85 82 80 84 85 84 85 86 84 83 82 83 83 83 83 86 86 86 87 86 88 89 90 92 92 92 93 91 89 88 85 86
47 54 56 55 56 57 54 57 63 64 66 67 68 69 70 70 72 66 63 66 75 78 80 79 80 83 82 80 81 82 82 79 80 81 82 85 86 86 82 80 80 83 86 86 83 86 88 88 87 89 88 89 87 89 89 90 91 92 91 91 87 85 86
47 52 54 56 51 44 49 62 62 62 62 63 61 64 67 71 73 71 74 75 78 79 79 78 79 81 82 83 83 83 83 82 78 81 82 84 85 84 83 82 83 83 83 85 87 88 87 88 91 91 90 90 89 91 91 90 90 88 88 88 87 86 85
46 51 52 48 41 46 60 62 67 66 65 63 60 61 65 68 71 73 74 76 77 78 80 81 81 82 85 84 80 82 80 77 81 82 83 78 78 78 79 78 81 81 80 81 82 84 89 91 90 90 90 91 91 91 90 90 88 86 86 86 86 86 85
51 47 47 37 44 56 61 65 64 66 65 65 62 63 67 66 66 65 66 71 76 78 79 81 82 82 82 80 75 76 78 77 79 80 82 82 80 80 81 78 77 76 79 80 83 84 87 89 91 91 91 93 93 93 93 91 88 87 86 85 86 85 84
42 46 48 47 56 55 60 61 60 62 59 59 58 55 62 64 63 62 62 64 68 71 75 79 80 78 79 78 78 78 79 76 76 78 79 79 78 78 77 78 78 77 77 78 80 81 84 89 90 91 93 94 93 93 92 91 87 87 86 85 85 84 84
50 46 44 46 46 42 52 59 64 65 65 64 62 59 57 62 63 64 62 61 65 66 70 72 74 74 74 73 78 80 79 77 76 76 76 77 77 77 77 77 78 78 78 79 81 81 85 87 90 91 93 92 89 88 88 89 88 87 86 86 86 85 86
47 45 42 43 41 48 59 59 62 65 66 65 65 58 57 60 62 63 63 62 64 65 66 68 70 71 70 73 79 82 78 77 76 76 76 77 78 77 76 76 77 78 78 77 81 83 84 87 89 89 89 89 87 86 86 87 86 86 85 86 86 86 86
44 45 43 42 49 49 58 63 63 66 68 65 62 51 55 57 61 62 63 61 62 63 64 66 68 69 70 76 79 78 77 75 74 72 73 74 75 76 77 78 78 76 77 80 82 84 84 83 86 87 88 87 86 85 86 88 88 87 86 87 87 88 88
42 41 43 48 51 59 63 63 65 67 66 64 54 47 58 60 61 63 62 62 62 62 62 65 65 71 68 67 69 73 73 73 73 74 73 74 73 73 74 75 76 77 78 78 78 78 77 79 83 86 86 87 85 84 85 85 86 88 88 88 87 87 87
40 43 41 43 51 60 65 66 67 68 63 52 53 62 61 63 63 64 64 63 63 61 61 64 68 69 69 71 72 71 72 70 70 70 71 72 73 74 74 72 75 77 77 75 76 77 77 80 82 84 84 84 83 84 84 84 86 89 88 87 87 87 86
45 43 39 39 33 55 66 64 63 66 57 59 62 62 65 65 65 64 64 64 64 62 60 63 65 67 67 68 68 67 68 69 67 67 68 68 69 70 72 74 76 77 73 72 72 74 76 78 81 84 86 82 82 83 82 79 83 86 88 88 87 86 85
39 39 35 37 51 56 60 60 56 63 64 65 64 63 63 65 66 64 62 63 63 63 62 62 64 65 65 65 66 66 66 67 67 68 69 70 70 71 73 74 74 75 72 71 71 72 73 74 76 78 81 79 78 78 75 77 80 83 86 86 86 85 85
39 42 47 54 56 57 61 60 60 64 65 66 65 64 63 63 64 64 62 61 63 64 63 62 63 63 63 63 64 65 65 66 66 67 67 69 69 70 70 71 72 72 71 70 71 71 73 72 73 74 76 75 73 71 72 76 78 81 82 84 84 84 84
50 52 53 55 57 59 60 65 65 63 65 66 66 65 64 63 63 63 61 63 63 64 65 64 62 62 63 63 64 64 65 65 66 68 68 68 69 71 72 71 71 72 73 73 72 70 71 72 72 72 73 73 71 71 74 76 78 79 81 81 81 82 83
42 37 54 55 57 59 57 59 62 65 65 65 65 64 64 64 64 64 65 64 64 63 65 65 64 64 65 64 64 64 65 65 65 66 66 67 68 69 69 71 72 72 73 72 71 71 70 72 73 73 73 73 73 74 75 77 78 79 79 79 79 79 80
40 41 50 53 56 55 56 56 55 59 64 65 65 65 66 66 66 66 66 66 65 66 65 64 65 66 65 64 64 64 64 64 64 65 66 66 68 69 71 72 73 73 72 71 71 71 70 72 73 73 73 73 74 75 76 77 77 77 77 78 79 78 79
45 48 49 51 53 54 56 59 60 61 62 64 64 65 65 66 66 66 67 67 66 66 65 65 65 64 64 65 64 64 64 64 64 64 65 66 67 68 70 71 73 72 71 70 69 70 71 72 73 73 73 74 75 76 77 79 78 76 74 75 77 78 78
36 39 46 52 46 48 56 59 61 62 64 65 64 64 64 65 64 64 65 66 68 67 66 65 64 62 62 64 64 64 64 63 63 64 66 67 67 68 70 72 72 71 70 69 69 69 70 72 72 72 73 75 76 77 78 78 78 77 76 76 76 76 77
40 49 52 53 51 50 52 55 58 60 61 63 65 62 62 63 63 64 64 64 66 66 67 67 65 63 63 63 64 65 65 64 65 65 66 67 67 67 69 71 71 70 69 70 70 70 70 71 72 73 73 74 76 77 77 77 77 77 77 75 75 75 75
49 52 52 52 48 46 52 57 59 60 61 60 64 64 63 61 63 65 64 64 63 64 66 67 66 64 63 64 64 64 66 66 65 65 67 68 68 69 69 68 68 68 70 71 71 71 73 73 72 72 72 74 75 78 77 78 78 77 76 75 74 74 75
45 52 53 53 52 53 57 58 59 59 60 59 63 64 64 63 63 64 63 64 65 65 64 65 66 67 65 66 66 66 66 67 66 66 66 66 67 66 67 67 67 67 69 71 72 73 74 73 72 71 71 71 73 76 76 78 78 77 76 76 76 76 75
MSLP
1003.42 1003.50 1003.42 1004.54 1004.22 1010.30 1007.62 1007.94 1009.74 1007.82 1005.90 1007.98 1010.22 1010.94 1010.50 1010.78 1011.78 1011.42 1008.22 1008.38 1006.54 1003.94 1003.02 1002.18 1001.90 1002.66 1002.38 1001.62 1001.54 1001.50 1001.46 1001.18 1001.42 1001.94 1001.86 1001.86 1001.86 1002.06 1002.34 1002.46 1002.58 1002.78 1003.22 1003.66 1003.90 1004.14 1004.38 1004.66 1005.10 1005.46 1005.66 1005.82 1006.30 1006.86 1007.38 1007.94 1008.30 1008.70 1009.10 1009.46 1009.86 1010.14 1010.42
1002.98 1001.74 1002.54 1003.54 1003.50 1003.78 1007.10 1009.30 1007.02 1005.58 1005.18 1006.38 1009.46 1012.18 1011.42 1011.98 1012.82 1010.38 1009.14 1008.98 1008.26 1008.18 1008.14 1002.46 1002.10 1002.62 1002.26 1002.22 1001.94 1001.38 1001.14 1001.06 1001.62 1001.38 1001.38 1001.18 1001.14 1001.10 1001.02 1001.14 1001.38 1001.90 1002.38 1002.70 1002.94 1003.26 1003.58 1003.74 1003.90 1004.34 1004.70 1004.90 1005.42 1005.98 1006.46 1007.14 1007.66 1008.14 1008.30 1008.78 1009.22 1009.54 1009.98
1003.02 1002.54 1003.02 1004.86 1003.62 1002.82 1004.98 1005.62 1003.50 1007.54 1011.26 1011.90 1009.10 1010.86 1013.62 1013.34 1012.62 1011.14 1009.22 1008.50 1007.66 1006.70 1005.66 1003.66 1003.82 1003.30 1002.50 1002.02 1001.70 1001.54 1001.50 1001.18 1000.98 1000.74 1000.62 1000.58 1000.54 1000.86 1001.22 1001.30 1001.54 1001.74 1001.94 1002.06 1002.26 1002.34 1002.34 1002.70 1003.06 1003.26 1003.58 1004.22 1004.82 1005.42 1005.78 1006.22 1006.74 1006.82 1007.26 1007.74 1008.34 1008.86 1009.26
1003.18 1003.38 1003.70 1007.38 1006.18 1004.38 1004.06 1003.42 1005.26 1003.78 1006.02 1007.74 1010.46 1008.94 1008.74 1009.26 1010.98 1011.74 1009.82 1009.66 1008.02 1004.30 1003.82 1002.90 1002.82 1002.54 1001.74 1001.22 1001.62 1001.74 1000.82 1000.22 1000.02 999.78 999.62 1000.02 1000.50 1000.46 1000.34 1000.54 1000.70 1000.78 1000.82 1000.98 1001.26 1001.62 1002.02 1002.26 1002.58 1002.78 1003.18 1003.74 1004.34 1004.62 1005.22 1005.66 1005.90 1006.54 1007.14 1007.50 1007.82 1008.30 1008.50
1003.22 1005.98 1004.14 1004.90 1004.66 1006.22 1006.38 1005.94 1006.14 1006.42 1005.98 1004.82 1005.58 1007.34 1007.90 1009.34 1010.14 1010.38 1010.14 1009.90 1005.98 1002.94 1000.94 1001.30 1001.38 1001.02 1001.02 1000.82 1000.74 1000.58 1000.34 999.62 999.06 998.82 998.74 998.94 999.34 999.66 999.62 999.66 999.82 999.98 1000.18 1000.38 1000.54 1000.78 1001.06 1001.34 1001.74 1002.14 1002.66 1003.18 1003.46 1003.86 1004.42 1004.78 1005.54 1005.98 1006.42 1006.70 1007.14 1007.50 1007.86
1004.90 1003.62 1002.62 1002.02 1002.46 1002.74 1003.70 1004.58 1005.42 1005.06 1006.30 1008.38 1009.66 1009.86 1006.70 1006.94 1008.74 1009.94 1010.14 1009.06 1005.10 1001.70 1000.70 1000.38 1000.14 999.66 999.62 999.54 999.70 999.62 999.42 999.06 998.74 998.38 998.18 998.18 998.66 998.70 998.78 998.82 998.94 999.30 999.66 999.86 999.98 1000.34 1000.78 1001.38 1001.70 1002.10 1002.34 1002.74 1003.22 1003.54 1003.54 1003.90 1004.54 1005.18 1005.66 1006.18 1006.58 1006.94 1007.30
1004.06 1002.94 1002.02 1000.94 1000.94 1001.18 1001.74 1002.54 1003.98 1003.14 1003.82 1004.94 1007.22 1009.62 1008.38 1007.14 1006.42 1006.26 1006.98 1008.66 1005.30 1000.50 1000.46 1000.14 999.58 999.38 999.06 998.78 999.22 999.62 999.10 998.74 998.34 998.18 997.70 997.74 998.06 998.26 998.34 998.54 998.62 998.78 998.98 999.22 999.54 1000.10 1000.46 1000.74 1000.98 1001.26 1001.70 1002.06 1002.30 1002.54 1002.90 1003.34 1003.86 1004.22 1004.46 1005.02 1005.50 1006.06 1006.58
1003.26 1002.34 1001.78 1001.86 1001.74 1002.26 1003.30 1002.70 1002.06 1002.86 1004.02 1003.74 1004.90 1005.30 1005.38 1007.14 1007.10 1008.58 1008.18 1009.10 1005.02 1001.26 1000.06 999.10 998.98 998.90 998.54 998.50 998.86 999.02 998.62 998.22 998.14 998.26 998.18 998.18 998.38 998.30 998.30 998.26 998.34 998.50 998.78 999.22 999.70 1000.18 1000.34 1000.54 1000.86 1000.98 1001.14 1001.38 1001.66 1002.02 1002.34 1002.66 1003.10 1003.26 1003.78 1004.30 1004.90 1005.50 1006.02
1006.42 1004.70 1002.78 1002.38 1002.66 1002.50 1003.70 1003.70 1002.90 1002.70 1002.58 1002.70 1002.70 1003.70 1005.90 1006.62 1005.98 1006.14 1007.66 1008.54 1005.42 1001.06 1000.50 1000.66 1000.22 1000.18 999.78 999.14 998.78 999.06 999.22 998.46 998.30 998.34 998.34 998.22 998.22 998.46 998.50 998.50 998.42 998.54 998.78 999.06 999.26 999.42 999.74 1000.02 1000.22 1000.46 1000.70 1000.90 1001.14 1001.42 1001.66 1002.10 1002.30 1002.62 1003.18 1003.54 1004.14 1004.62 1005.18
1008.86 1008.86 1007.78 1005.66 1004.62 1005.10 1005.78 1005.50 1005.22 1004.58 1003.86 1003.66 1004.66 1006.14 1006.90 1008.02 1005.50 1005.22 1006.06 1005.38 1003.38 1001.02 1001.22 1001.02 1000.70 1000.50 1000.34 999.30 998.70 998.50 998.82 999.10 998.74 998.42 998.54 998.62 998.66 998.58 998.42 998.34 998.50 998.54 998.30 998.42 998.82 999.06 999.22 999.42 999.50 999.78 1000.06 1000.22 1000.50 1000.74 1000.94 1000.98 1001.62 1002.26 1002.66 1002.94 1003.38 1003.98 1004.50
1005.94 1007.30 1008.02 1007.98 1007.58 1006.62 1006.02 1005.70 1005.90 1005.66 1005.26 1004.70 1003.78 1003.98 1005.66 1006.94 1006.18 1005.86 1003.78 1003.54 1003.22 1002.26 1001.26 1000.74 1000.38 1000.42 1000.34 999.26 998.54 998.42 998.58 998.58 998.62 998.82 998.86 998.66 998.54 998.42 998.26 998.34 998.34 998.46 998.66 998.58 998.38 998.54 998.66 998.70 998.90 999.10 999.38 999.66 999.86 1000.22 1000.46 1000.62 1001.02 1001.58 1002.02 1002.50 1002.90 1003.38 1003.74
1007.86 1007.26 1007.42 1006.82 1007.38 1008.14 1007.42 1007.30 1006.22 1005.66 1005.98 1005.70 1005.78 1005.10 1005.18 1003.62 1005.58 1006.22 1003.06 1002.90 1004.14 1002.74 1001.42 1000.66 1000.18 1000.10 1000.26 999.78 998.62 998.34 998.18 997.98 998.46 998.38 998.46 998.54 998.54 998.14 998.22 998.38 998.50 998.46 998.18 998.18 998.34 998.34 998.38 998.38 998.34 998.58 998.70 998.86 999.14 999.50 999.94 1000.18 1000.54 1001.02 1001.38 1001.86 1002.42 1002.82 1003.22
1007.50 1007.18 1006.90 1006.74 1007.14 1007.26 1007.30 1007.06 1006.82 1006.54 1005.94 1006.10 1006.42 1005.98 1005.10 1004.02 1004.26 1004.70 1003.18 1002.78 1003.70 1002.62 1001.34 1000.38 999.86 999.26 999.14 998.30 998.02 998.14 998.26 998.10 998.10 998.58 998.70 998.42 997.82 997.50 997.74 997.86 998.02 998.10 998.18 998.06 997.98 998.02 998.02 998.06 998.30 998.34 998.50 998.62 998.82 999.06 999.26 999.62 999.90 1000.18 1000.42 1001.14 1001.74 1002.18 1002.66
1007.58 1007.18 1006.70 1006.54 1007.14 1007.06 1007.10 1006.86 1006.50 1006.06 1005.94 1005.70 1005.74 1005.46 1004.66 1004.82 1005.06 1004.22 1003.22 1003.06 1002.82 1001.50 1000.74 999.94 999.10 998.42 998.34 998.26 998.42 998.50 998.34 997.38 997.34 998.06 998.18 997.90 997.50 997.38 997.34 997.26 997.50 997.54 997.50 997.50 997.58 997.62 997.90 997.98 997.98 998.06 998.18 998.30 998.38 998.58 998.82 998.94 999.30 999.42 1000.06 1000.58 1001.02 1001.62 1002.02
1007.62 1007.02 1006.54 1006.46 1006.90 1007.14 1007.10 1006.10 1005.66 1005.34 1005.06 1005.10 1004.82 1004.86 1004.50 1004.58 1004.62 1003.94 1003.54 1003.70 1003.38 1001.10 1000.42 999.82 998.38 997.94 998.34 998.94 998.78 997.98 997.34 997.34 997.74 997.86 997.42 997.06 997.18 997.14 996.98 996.94 997.18 997.22 997.22 997.18 997.34 997.50 997.38 997.26 997.22 997.34 997.38 997.50 997.74 997.94 998.18 998.46 998.74 998.86 999.18 999.86 1000.42 1000.98 1001.18
1007.78 1006.82 1006.98 1006.78 1006.38 1006.14 1005.94 1005.58 1005.02 1004.70 1004.74 1005.06 1004.18 1004.82 1003.70 1004.50 1004.70 1004.02 1003.62 1003.90 1003.30 1000.82 999.86 999.70 999.38 999.58 999.74 999.18 998.46 997.98 997.58 997.70 998.06 997.94 997.22 996.70 996.30 996.30 996.82 997.10 997.10 997.14 997.06 997.10 997.06 996.94 996.70 996.66 996.82 996.86 997.02 997.10 997.46 997.62 997.54 997.74 997.78 998.14 998.70 999.22 999.82 1000.18 1000.34
1008.26 1006.94 1006.82 1006.98 1006.50 1005.78 1005.74 1004.50 1003.30 1003.10 1002.74 1002.66 1002.38 1002.10 1001.98 1002.02 1002.10 1003.38 1004.06 1003.02 1000.70 999.58 999.10 999.74 999.54 999.10 998.86 998.98 998.58 998.06 997.62 997.74 997.86 997.54 996.98 996.50 996.14 996.10 996.54 997.02 997.14 996.74 996.42 996.22 996.34 996.10 995.90 995.94 995.98 995.78 995.86 996.54 996.90 996.74 996.94 996.78 997.14 997.86 998.26 998.54 998.98 999.58 1000.06
1008.14 1007.38 1007.18 1006.78 1007.14 1008.18 1005.74 1003.22 1003.50 1003.46 1003.66 1003.30 1003.78 1003.14 1002.66 1001.58 1001.34 1001.66 1000.90 1000.38 999.22 999.10 999.34 999.66 999.42 998.94 998.10 997.50 997.02 996.66 996.82 997.06 997.38 997.14 996.78 996.38 996.42 996.46 996.54 996.50 996.38 996.18 996.06 995.82 995.42 995.30 995.26 995.02 994.82 994.90 995.30 995.70 995.70 995.86 996.46 997.14 997.74 997.98 998.34 998.50 998.82 999.34 999.78
1008.74 1007.66 1007.38 1007.98 1008.74 1006.18 1003.30 1003.26 1002.42 1002.62 1002.86 1003.46 1004.18 1003.82 1002.86 1002.14 1001.42 1000.98 1000.54 999.78 999.58 998.94 998.70 998.54 998.26 997.66 996.66 996.38 997.50 997.26 997.34 997.66 997.18 996.78 996.58 996.62 996.74 996.78 996.66 996.50 996.10 995.98 995.98 995.78 995.54 995.26 994.86 994.62 994.74 994.94 995.10 994.90 995.22 995.86 996.06 996.50 996.82 997.54 998.02 998.42 998.90 999.38 999.82
1007.94 1008.46 1008.06 1009.58 1006.18 1004.18 1003.18 1002.46 1002.82 1002.46 1002.70 1003.10 1003.58 1002.78 1001.94 1002.34 1002.42 1002.62 1002.02 1000.74 999.58 998.74 998.54 998.30 997.66 997.42 997.34 997.38 998.02 997.94 997.46 997.50 997.38 997.14 996.62 996.46 996.66 996.62 996.22 996.30 996.26 996.14 995.74 995.54 995.22 994.90 994.34 994.30 994.30 994.30 994.38 994.46 995.06 995.42 995.54 996.22 996.62 997.02 997.54 998.10 998.58 999.02 999.50
1008.94 1007.78 1007.14 1006.34 1004.10 1004.62 1003.02 1002.78 1003.66 1003.34 1003.98 1004.18 1004.30 1004.98 1003.06 1002.70 1003.06 1003.06 1002.94 1002.18 1001.22 1000.38 999.30 998.58 998.26 998.30 998.10 998.22 997.58 997.30 997.22 997.26 997.18 997.02 996.70 996.58 996.54 996.42 996.22 995.98 995.86 995.66 995.46 995.34 994.98 994.74 994.42 994.02 993.90 993.94 993.94 994.30 994.74 995.18 995.58 995.78 996.26 996.78 997.26 997.82 998.02 998.22 998.58
1007.58 1007.50 1007.74 1006.70 1006.50 1006.86 1003.66 1003.02 1002.62 1002.66 1002.86 1003.10 1003.50 1004.18 1003.82 1002.90 1002.98 1002.74 1002.98 1002.82 1001.90 1001.38 1000.46 999.78 999.26 999.06 999.38 999.54 997.70 996.58 996.78 996.94 997.06 996.98 996.86 996.62 996.50 996.30 996.14 995.86 995.62 995.38 995.10 994.86 994.58 994.58 994.22 993.98 993.54 993.54 993.70 994.02 994.62 995.14 995.38 995.58 996.14 996.62 997.02 997.30 997.30 997.58 997.78
1007.78 1007.86 1007.82 1006.62 1006.58 1004.58 1002.38 1003.10 1002.78 1002.38 1002.42 1002.78 1002.86 1004.02 1003.30 1003.18 1003.06 1002.70 1002.66 1002.58 1002.06 1001.74 1001.30 1000.54 1000.10 999.94 1000.22 998.86 997.06 995.70 996.54 996.90 996.94 997.06 996.94 996.74 996.46 996.30 996.14 995.94 995.70 995.34 995.06 994.82 994.38 994.14 994.10 994.06 993.66 993.54 993.70 993.98 994.54 995.10 995.30 995.54 995.90 996.46 996.66 996.70 996.78 996.90 997.02
1008.74 1007.86 1007.54 1006.78 1005.06 1004.90 1003.14 1002.38 1002.54 1001.98 1001.94 1002.58 1003.06 1004.94 1003.14 1003.82 1003.06 1002.74 1002.54 1002.62 1002.26 1002.06 1001.66 1001.10 1000.62 1000.26 999.78 998.02 997.06 996.86 996.94 997.06 997.26 997.42 997.42 997.22 996.90 996.42 995.90 995.66 995.46 995.34 994.86 994.42 994.34 994.34 994.42 994.38 993.82 993.70 993.78 994.10 994.58 995.02 995.26 995.38 995.82 996.02 995.90 995.86 995.94 996.30 996.82
1008.78 1008.94 1007.74 1006.10 1004.62 1003.18 1002.42 1002.46 1002.14 1001.86 1002.02 1002.58 1004.50 1004.78 1002.70 1002.82 1002.70 1002.38 1002.38 1002.22 1001.94 1001.90 1001.86 1001.14 1001.06 998.98 999.38 999.30 998.78 997.82 997.66 997.78 997.82 997.54 997.42 997.26 997.18 996.98 996.42 996.18 995.66 995.38 995.06 994.90 995.06 995.02 994.98 994.58 994.06 993.86 993.94 994.34 994.82 995.02 995.22 995.54 995.62 995.46 995.58 995.82 996.10 996.46 996.74
1008.94 1008.34 1008.18 1006.74 1004.74 1002.70 1001.98 1001.94 1001.90 1001.58 1002.58 1004.70 1003.50 1001.74 1002.38 1001.94 1001.98 1001.82 1001.86 1001.86 1001.62 1001.78 1001.82 1001.02 1000.02 999.30 999.14 998.74 998.46 998.34 998.06 998.14 998.18 998.14 998.02 997.74 997.38 996.86 996.54 996.38 995.86 995.54 995.38 995.46 995.30 995.18 994.94 994.54 994.18 994.06 994.22 994.70 994.94 995.22 995.54 995.82 995.62 995.22 995.18 995.42 995.78 996.22 996.62
1008.14 1008.26 1008.62 1007.94 1009.10 1003.26 1001.94 1002.42 1002.62 1002.06 1003.30 1001.78 1001.82 1001.78 1001.46 1001.58 1001.54 1001.74 1001.58 1001.50 1001.30 1001.38 1001.62 1000.86 1000.22 999.90 999.58 999.34 999.14 999.02 998.62 998.38 998.50 998.46 998.34 998.22 998.06 997.74 997.26 996.62 995.94 995.62 995.82 995.86 995.82 995.62 995.22 994.90 994.54 994.18 994.30 994.98 995.22 995.38 995.82 996.10 995.62 995.30 995.26 995.38 995.70 996.02 996.30
1007.86 1008.06 1008.46 1007.34 1004.26 1004.10 1003.70 1003.58 1003.70 1001.78 1001.62 1001.42 1001.46 1001.70 1001.70 1001.42 1001.34 1001.50 1001.86 1001.42 1001.38 1001.22 1001.22 1001.06 1000.38 1000.14 999.98 999.70 999.42 999.14 998.94 998.70 998.50 998.30 998.14 998.02 997.90 997.66 997.34 996.86 996.34 995.90 995.94 995.90 995.94 995.90 995.66 995.42 995.18 994.94 994.78 995.38 995.70 996.02 996.58 996.14 995.82 995.54 995.46 995.50 995.74 996.14 996.38
1009.26 1006.86 1005.86 1004.70 1004.26 1004.26 1003.66 1003.94 1003.70 1002.66 1001.98 1001.66 1001.58 1001.62 1001.62 1001.46 1001.30 1001.30 1001.62 1001.70 1001.34 1001.10 1000.86 1000.86 1000.78 1000.50 1000.30 999.98 999.58 999.38 999.18 998.90 998.74 998.62 998.42 998.18 998.06 997.90 997.70 997.26 996.74 996.30 996.22 996.22 996.06 996.06 995.94 995.86 995.78 995.70 995.58 995.94 996.38 996.74 996.66 996.14 996.06 995.86 995.78 995.74 995.94 996.14 996.30
1007.58 1006.78 1006.42 1005.82 1004.62 1003.66 1003.74 1003.06 1003.02 1003.06 1002.42 1001.94 1001.62 1001.46 1001.42 1001.22 1001.30 1001.38 1001.70 1001.38 1001.30 1001.02 1000.62 1000.58 1000.78 1000.74 1000.38 999.90 999.70 999.66 999.50 999.26 998.90 998.50 998.38 998.22 997.94 997.62 997.42 997.30 997.06 996.70 996.30 996.14 996.18 996.38 996.30 996.14 996.18 996.14 996.14 996.22 996.66 996.78 996.34 996.18 995.98 995.86 995.78 995.98 996.18 996.30 996.34
1008.94 1008.42 1005.38 1005.06 1004.46 1003.86 1004.30 1004.18 1003.38 1002.98 1002.54 1002.26 1001.82 1001.66 1001.22 1000.98 1000.90 1001.14 1001.18 1001.22 1001.06 1000.98 1000.74 1000.58 1000.42 1000.50 1000.14 999.90 999.70 999.58 999.50 999.38 999.22 998.98 998.70 998.38 998.06 997.78 997.70 997.42 997.14 996.98 996.70 996.62 996.66 996.62 996.66 996.46 996.34 996.34 996.34 996.38 996.46 996.42 996.34 996.10 995.98 995.98 996.06 996.14 996.34 996.46 996.62
1009.42 1007.50 1006.22 1005.54 1004.98 1004.70 1004.58 1004.78 1004.74 1003.70 1002.86 1002.38 1002.06 1001.62 1000.90 1000.50 1000.42 1000.82 1001.06 1000.94 1000.90 1000.70 1000.70 1000.78 1000.46 1000.18 1000.26 1000.18 999.82 999.54 999.46 999.46 999.34 999.14 998.86 998.54 998.22 997.86 997.58 997.42 997.22 997.18 997.14 997.02 996.94 996.86 996.90 996.70 996.50 996.50 996.46 996.54 996.46 996.34 996.18 996.10 996.10 996.22 996.38 996.42 996.54 996.70 996.74
1007.86 1007.26 1006.74 1006.06 1005.42 1004.70 1004.06 1003.66 1003.50 1003.18 1002.82 1002.34 1002.06 1001.62 1000.90 1000.06 1000.06 1000.90 1000.98 1000.86 1000.78 1000.62 1000.78 1000.54 1000.46 1000.22 1000.10 999.94 999.70 999.54 999.38 999.42 999.50 999.38 999.10 998.74 998.46 998.18 997.94 997.74 997.50 997.74 997.78 997.70 997.42 997.22 997.18 996.94 996.82 996.70 996.66 996.58 996.46 996.38 996.22 996.02 996.06 996.34 996.66 996.70 996.70 996.78 996.82
1009.46 1008.50 1006.18 1005.62 1005.82 1004.62 1003.46 1003.22 1002.98 1002.82 1002.46 1002.02 1001.74 1001.66 1001.02 1000.06 1000.18 1001.10 1001.38 1000.98 1000.42 1000.34 1000.34 1000.46 1000.46 1000.46 1000.26 1000.06 999.90 999.74 999.50 999.46 999.50 999.42 999.26 998.98 998.70 998.38 997.98 997.74 997.78 998.10 998.26 998.14 997.94 997.62 997.46 997.26 997.14 997.02 996.86 996.70 996.54 996.38 996.26 996.22 996.18 996.50 996.66 996.74 996.86 996.98 996.94
1006.78 1005.50 1005.78 1005.86 1005.78 1005.34 1004.78 1004.42 1003.42 1003.10 1002.94 1002.14 1001.30 1001.74 1001.38 1000.70 999.94 1000.78 1001.38 1001.18 1000.70 1000.50 1000.30 1000.18 1000.38 1000.50 1000.42 1000.30 1000.10 999.90 999.66 999.50 999.34 999.30 999.34 999.26 998.94 998.62 998.22 998.06 998.18 998.38 998.42 998.18 997.94 997.90 997.74 997.54 997.46 997.34 997.22 996.98 996.78 996.58 996.50 996.46 996.50 996.62 996.70 996.98 997.10 997.18 997.26
1006.22 1005.98 1006.14 1006.14 1006.58 1006.22 1004.66 1004.14 1003.62 1003.06 1002.58 1002.54 1001.06 1001.22 1001.34 1001.14 1000.14 1000.34 1001.02 1000.98 1001.02 1000.90 1000.54 1000.30 1000.18 1000.34 1000.34 1000.30 1000.26 1000.26 999.90 999.54 999.38 999.38 999.30 999.22 998.98 998.58 998.34 998.42 998.54 998.58 998.58 998.38 998.14 997.98 997.74 997.62 997.62 997.54 997.46 997.22 997.02 996.78 996.74 996.70 996.62 996.74 996.86 997.06 997.38 997.42 997.38
1006.78 1005.94 1005.90 1005.66 1005.34 1004.70 1004.18 1003.94 1003.58 1003.18 1002.74 1002.70 1001.42 1000.82 1001.22 1001.06 1000.38 1000.10 1000.70 1000.74 1000.54 1000.66 1000.86 1000.74 1000.26 1000.06 1000.14 1000.14 1000.18 1000.22 1000.10 999.78 999.50 999.42 999.42 999.42 999.34 999.06 998.70 998.50 998.58 998.58 998.46 998.30 998.10 997.90 997.78 997.78 997.74 997.70 997.66 997.54 997.34 997.14 996.94 996.78 996.70 996.86 996.94 996.98 997.18 997.30 997.42
Wind_Speed
16 18 15 12 16 11 10 11 16 14 7 10 8 2 1 2 2 11 5 8 9 7 11 13 8 7 10 10 11 12 13 13 11 10 12 16 17 18 18 20 20 22 19 18 18 18 18 19 19 21 21 20 21 19 18 20 19 18 19 19 18 17 16
16 14 18 14 20 6 11 12 12 9 6 10 9 9 3 7 10 6 6 14 9 5 11 3 11 11 11 11 13 13 13 12 11 12 13 14 17 19 22 22 21 20 20 22 21 19 20 21 23 23 22 20 19 19 21 21 20 21 20 19 20 18 17
11 7 15 12 12 14 14 10 13 10 8 11 10 5 12 10 12 7 7 9 12 11 11 1 7 11 11 11 11 12 12 13 13 13 14 14 14 14 16 18 17 17 19 21 22 24 24 23 21 21 21 21 19 19 20 22 23 23 22 20 19 16 17
11 11 14 14 12 6 5 10 14 7 4 8 11 12 1 5 9 3 6 5 12 10 12 11 9 8 10 10 9 12 14 14 13 12 12 13 14 15 16 17 18 20 23 24 25 24 23 23 22 21 21 20 23 23 21 21 21 18 18 19 18 19 19
12 10 11 14 15 15 9 11 12 6 7 2 8 2 10 7 6 7 6 9 6 5 11 15 18 13 12 11 10 10 12 13 14 13 12 12 15 15 16 17 19 21 22 23 24 23 22 21 19 19 19 21 22 21 22 23 22 21 22 21 19 18 17
10 6 11 16 18 18 15 15 15 15 13 9 11 10 6 8 7 4 5 13 1 2 1 8 12 13 11 10 11 10 12 14 12 11 12 10 11 14 16 17 18 18 20 21 21 20 18 18 18 20 19 18 20 21 21 22 22 20 22 20 18 17 17
6 4 12 11 8 16 16 16 14 16 14 10 9 8 10 7 10 1 4 8 8 4 6 7 8 9 12 12 10 10 10 11 11 11 12 9 7 9 13 14 15 16 18 19 19 19 20 21 20 21 20 20 21 23 22 20 21 22 22 22 20 17 17
3 7 3 4 6 2 6 10 10 12 16 15 13 11 5 10 6 6 5 11 5 2 3 7 9 7 7 4 5 10 11 9 9 9 9 9 6 7 7 9 12 12 13 13 13 16 16 16 16 19 20 20 20 20 20 20 23 24 22 20 19 18 18
3 6 6 9 4 6 5 5 7 7 12 16 17 8 4 9 12 14 9 16 3 4 0 1 3 3 6 9 7 7 9 7 6 7 8 7 7 5 7 10 11 10 12 14 15 16 16 17 17 18 18 19 19 20 20 21 21 21 20 19 19 20 21
15 16 17 15 10 5 3 2 2 3 9 17 13 13 4 8 9 16 13 12 2 4 1 3 5 3 6 8 9 4 6 7 7 6 5 6 6 7 8 8 9 14 15 13 13 15 15 15 18 17 17 19 20 19 21 21 20 18 20 19 19 19 20
3 2 3 3 3 1 4 1 4 4 3 6 10 9 9 12 5 11 15 12 5 5 6 3 5 6 7 8 8 9 7 7 7 6 5 5 5 7 8 7 7 5 7 13 16 16 15 18 18 17 19 19 20 18 19 20 18 18 18 18 18 19 21
4 2 4 5 4 3 4 6 6 4 4 3 5 13 11 7 8 15 13 11 13 11 4 3 5 5 6 7 8 8 6 6 6 5 4 6 7 8 4 5 8 11 12 12 12 13 16 16 16 17 18 19 19 18 19 19 19 18 16 18 18 18 18
4 5 6 4 3 3 4 6 8 10 6 8 9 8 8 8 14 15 7 10 12 8 11 10 8 5 7 9 11 7 5 6 2 3 5 7 10 9 8 9 9 10 11 12 12 13 14 16 17 19 17 18 15 14 17 17 19 21 18 18 18 18 18
5 5 7 3 1 2 6 8 10 11 11 12 10 11 12 11 12 10 13 7 12 10 12 13 15 8 8 7 5 4 6 7 5 5 6 8 8 7 8 9 10 11 12 11 12 12 11 15 16 17 16 16 18 19 19 18 19 19 16 17 17 18 19
5 5 5 3 2 5 9 10 11 12 12 12 12 11 12 11 11 13 15 16 15 3 5 10 11 8 3 4 9 10 10 8 6 6 7 7 7 7 8 7 7 8 9 10 10 12 13 15 17 17 17 17 17 20 19 19 19 18 19 15 17 19 20
6 1 4 6 9 11 12 11 10 11 11 11 9 9 9 10 9 8 13 13 11 4 7 10 11 7 7 10 11 10 9 8 6 7 8 7 6 7 5 4 6 7 9 10 12 15 17 16 16 15 15 15 16 19 19 20 20 19 18 18 20 19 17
7 4 4 9 12 11 11 14 11 11 12 10 8 10 8 11 7 11 11 8 3 8 8 11 10 13 11 11 10 9 9 7 8 9 9 8 8 7 5 5 6 8 9 10 12 15 15 15 16 19 18 16 17 18 18 19 16 17 19 20 18 17 14
3 5 7 7 7 10 8 5 2 1 6 5 8 8 7 7 10 11 8 10 8 8 7 11 11 14 14 12 11 9 8 6 7 9 8 9 8 8 8 8 8 8 7 8 10 13 14 16 18 17 16 18 16 16 14 9 12 14 14 15 16 14 13
5 3 5 7 12 11 4 2 2 3 7 4 4 9 12 10 8 9 14 15 13 11 9 10 12 13 16 6 2 4 4 4 6 7 7 6 7 7 6 7 7 6 6 8 10 10 12 14 12 12 15 17 14 13 13 16 16 15 14 15 13 11 12
4 2 4 5 6 6 12 3 4 3 2 3 8 9 3 5 6 6 8 7 11 13 11 9 10 10 7 3 2 3 4 5 6 6 7 6 5 6 5 6 6 6 6 7 9 9 8 9 12 14 15 15 15 16 16 15 14 14 14 13 13 11 13
7 5 9 14 9 16 19 8 5 2 2 1 3 2 3 6 6 8 7 10 11 11 12 9 8 5 5 8 7 7 7 7 6 7 6 4 5 5 6 6 7 7 8 8 9 8 8 10 12 13 13 14 15 15 15 15 13 14 13 14 15 15 16
8 8 8 9 8 13 9 4 5 3 2 2 2 2 4 4 6 7 7 9 11 12 12 10 7 4 7 9 9 9 9 6 6 4 5 4 4 5 6 6 6 7 7 7 8 7 9 10 11 10 12 13 13 12 14 14 14 15 14 16 15 15 16
6 9 11 10 11 7 3 9 3 1 3 4 6 3 5 4 9 9 9 11 10 11 12 12 6 5 9 9 8 5 8 6 3 2 3 4 4 4 5 6 7 7 6 5 5 4 6 8 8 9 10 12 11 12 11 12 12 13 15 16 16 17 17
8 7 9 12 6 6 2 7 2 2 2 6 5 7 3 5 8 9 9 10 11 10 11 11 8 9 10 7 2 7 4 3 3 1 3 4 5 5 4 4 5 4 3 3 5 2 1 2 1 7 9 9 12 10 10 11 14 16 16 16 14 13 12
11 11 10 8 9 4 6 1 2 1 4 3 6 8 2 1 4 7 8 10 9 8 10 9 8 5 3 5 5 4 5 4 4 4 4 4 5 5 5 5 4 3 6 7 7 6 4 4 1 4 6 9 9 8 9 11 13 14 10 7 7 8 8
10 11 11 11 8 4 2 4 2 2 3 7 9 2 2 5 7 6 8 10 9 7 8 9 11 7 5 5 2 3 4 4 3 5 6 6 5 3 3 3 3 5 7 9 8 8 7 6 4 3 4 6 6 6 7 9 8 7 7 8 9 9 10
9 9 9 7 7 2 3 5 3 5 8 3 2 3 2 2 5 7 7 8 8 7 8 9 9 6 3 2 1 3 3 4 4 5 6 6 7 6 4 4 5 6 9 11 11 9 8 8 7 4 6 5 4 5 4 5 5 1 5 7 8 9 10
10 10 11 7 3 7 12 10 6 1 2 3 1 2 3 2 4 5 6 7 7 6 6 8 7 4 3 0 1 3 4 4 4 4 4 5 5 5 5 5 6 8 10 10 11 11 10 10 9 9 7 8 7 7 7 4 4 3 2 5 6 8 9
3 6 5 8 14 10 10 9 12 8 1 2 2 2 1 2 3 5 6 8 9 7 5 5 5 3 2 3 4 4 4 4 4 4 4 4 5 5 6 7 7 8 10 11 11 12 11 12 11 11 9 9 10 9 5 4 3 2 1 2 5 8 9
6 12 13 15 17 16 12 13 9 9 5 3 3 3 1 3 3 4 6 8 8 8 6 1 2 3 2 3 5 4 5 5 5 5 6 6 6 6 6 7 8 8 9 11 12 13 13 12 11 11 11 11 12 8 5 5 3 2 3 4 4 3 2
6 6 2 9 13 12 11 12 12 10 8 5 4 2 2 3 4 5 6 7 7 7 6 5 2 2 3 3 5 5 5 6 6 6 7 7 8 8 8 7 6 6 8 10 12 13 13 11 11 11 11 10 9 7 7 6 6 5 5 5 5 4 3
8 10 11 15 15 14 13 10 12 14 10 6 5 4 2 5 7 6 6 6 5 6 5 7 5 3 4 5 5 5 6 6 6 6 6 6 7 8 8 7 7 8 9 11 11 12 12 10 10 10 10 10 8 8 7 7 7 7 7 6 6 6 5
10 14 18 19 19 20 19 16 14 13 10 6 4 5 3 8 11 8 6 5 6 7 8 8 8 7 9 9 8 7 6 7 6 7 6 6 6 7 7 8 9 9 9 10 11 12 11 9 10 10 10 10 9 9 9 8 7 8 8 8 7 6 4
11 10 9 4 6 7 5 6 11 13 11 7 2 5 1 9 11 6 5 5 6 7 8 9 10 10 9 10 10 8 7 8 8 7 6 5 6 7 7 7 9 10 10 9 10 11 9 8 8 9 10 9 9 8 7 5 6 6 6 6 6 5 4
13 9 6 7 9 13 13 13 17 15 14 10 3 4 3 3 11 7 2 5 7 8 8 8 10 10 10 10 10 8 8 8 8 7 7 6 6 7 8 9 11 10 9 10 11 11 10 8 8 8 8 8 9 8 7 6 6 6 5 5 5 5 4
21 19 17 16 13 15 17 16 16 18 13 13 3 3 5 2 7 7 4 5 5 6 6 8 9 8 8 8 9 9 9 9 9 9 8 8 7 7 8 9 9 10 10 10 10 10 8 9 10 9 10 9 9 9 8 8 8 7 6 5 5 4 4
15 13 13 14 15 17 17 17 18 18 18 16 6 7 6 4 5 7 4 4 6 7 7 7 8 9 9 9 9 9 8 9 9 9 9 8 9 8 8 9 9 9 8 9 9 10 10 10 10 10 10 9 8 8 8 8 7 7 6 5 6 5 4
Wind_Direction
174 193 168 171 159 200 172 176 206 215 165 191 231 273 2 48 310 250 182 262 257 285 265 250 220 212 239 229 225 224 230 227 211 201 199 200 201 200 199 204 204 201 196 194 200 202 197 197 197 198 199 195 196 197 193 195 196 194 193 195 197 198 200
206 194 171 173 187 148 132 202 201 122 151 221 217 238 161 222 244 238 179 238 245 226 278 145 199 196 209 219 224 226 229 231 220 215 205 202 201 199 200 201 201 194 192 196 200 203 202 199 198 199 198 195 194 196 197 197 194 195 194 192 195 196 196
176 133 171 174 196 151 191 204 138 165 171 198 199 208 231 219 230 244 227 235 250 225 233 142 186 201 206 213 214 221 224 228 231 226 215 206 204 200 200 203 198 196 199 199 200 203 202 202 200 199 195 193 196 197 201 201 200 198 192 192 195 195 195
140 170 178 197 180 210 31 130 169 191 186 198 171 202 343 203 240 242 244 173 254 207 234 224 232 217 220 214 211 221 226 223 219 221 216 198 192 199 202 201 202 200 202 202 202 203 203 202 199 201 198 196 200 200 200 203 205 199 194 193 190 191 193
148 188 192 196 182 183 180 185 189 170 219 31 196 165 213 200 225 229 268 269 259 206 194 202 215 210 213 220 219 216 222 227 228 225 214 195 192 198 201 201 201 201 203 204 205 204 204 204 203 201 199 198 200 199 200 200 198 195 194 194 192 192 191
199 182 180 202 195 194 195 191 198 185 189 168 185 211 192 223 210 223 188 251 209 131 185 198 216 211 214 215 217 221 226 228 229 229 230 211 196 198 197 201 200 199 201 204 205 203 201 200 203 200 201 200 202 202 203 201 200 198 198 195 194 191 192
189 156 193 226 231 208 205 195 197 193 201 188 194 212 193 201 227 348 259 296 275 153 159 198 210 210 219 225 213 232 242 242 242 238 238 234 214 213 208 205 202 201 199 200 198 195 192 195 199 198 197 200 201 202 203 201 198 200 198 197 193 187 188
257 266 253 270 263 254 252 225 222 199 202 195 208 219 159 193 171 197 214 245 240 206 225 198 199 212 231 245 212 224 235 236 239 247 253 256 235 219 209 205 203 203 198 190 191 192 190 193 195 195 197 201 202 202 203 201 202 201 196 194 191 187 188
243 248 251 223 97 206 225 225 220 231 214 210 215 210 62 218 198 202 196 239 179 133 327 311 276 267 246 242 239 231 250 256 249 254 250 250 247 225 209 203 201 190 193 192 196 198 199 199 199 198 197 197 199 201 201 202 205 201 196 193 192 191 190
192 197 203 207 189 164 5 273 298 26 227 217 212 217 161 224 191 202 216 230 95 96 273 229 243 252 275 270 265 251 242 262 261 252 253 247 250 239 225 212 188 195 198 196 198 200 199 196 197 195 198 198 201 200 201 201 202 196 196 194 195 192 190
225 39 22 15 344 350 216 121 324 296 307 319 247 234 210 211 137 217 223 231 247 184 197 166 230 230 243 261 265 253 244 243 245 244 257 262 250 238 236 223 210 187 195 203 203 201 198 198 197 195 198 200 201 199 201 200 199 196 194 193 193 192 190
49 343 336 346 348 295 284 294 289 298 297 287 255 220 229 129 182 231 223 220 238 227 188 205 237 239 248 264 269 269 266 249 240 237 221 241 254 251 233 225 209 206 207 205 204 202 199 198 195 196 198 198 198 195 197 197 195 193 191 189 189 189 189
339 313 308 338 315 276 269 274 279 282 286 268 252 261 261 222 221 240 220 218 236 237 232 237 248 239 238 235 244 259 310 317 259 211 231 228 234 232 221 217 210 213 212 209 207 204 202 201 198 199 199 200 198 193 198 193 193 196 189 183 184 185 188
313 315 311 320 291 312 294 271 271 271 268 265 254 253 256 257 267 301 286 272 241 229 226 228 239 231 239 253 285 293 262 260 275 240 227 235 240 235 230 223 212 211 215 210 206 205 201 202 199 200 199 199 201 199 199 192 194 197 187 188 184 194 197
304 313 305 274 269 303 289 284 264 258 255 254 248 249 254 261 269 265 272 275 272 251 318 279 261 252 330 297 266 264 271 271 249 244 241 240 244 244 238 243 238 227 220 217 206 206 206 203 201 200 202 200 201 204 202 199 197 194 191 187 188 197 204
295 332 318 316 314 306 284 270 261 248 240 249 237 228 223 229 243 256 260 259 262 252 210 246 261 268 254 254 249 246 242 238 229 239 248 247 248 252 247 230 238 235 230 219 211 211 211 209 204 202 202 199 198 204 202 201 199 193 194 191 195 198 199
278 289 315 327 317 304 277 248 238 239 252 255 274 269 243 236 241 241 242 262 264 251 213 231 238 253 245 233 250 255 250 227 227 229 235 246 251 253 256 243 225 232 235 228 216 218 215 208 204 205 198 195 198 202 202 201 192 191 193 194 194 198 190
272 321 317 318 300 258 245 85 68 294 270 277 261 275 291 271 227 251 264 272 270 249 226 228 235 237 249 241 232 237 249 231 220 235 238 244 253 264 259 254 251 240 232 241 235 222 218 215 210 207 198 199 200 198 197 174 184 198 196 198 198 192 184
269 283 297 281 254 247 92 149 34 241 261 244 288 289 265 260 271 273 254 249 249 246 233 228 229 239 247 262 66 236 244 248 249 244 242 233 237 248 255 259 259 253 245 246 246 241 233 226 214 201 202 205 198 190 186 184 189 193 198 203 202 194 191
246 287 232 244 223 5 305 329 123 25 132 159 288 271 202 30 354 325 286 287 272 268 259 243 243 251 286 308 185 211 235 232 238 240 243 239 238 252 264 278 279 274 272 263 259 252 239 220 209 204 205 198 195 198 195 193 188 191 193 192 195 186 189
229 211 229 246 325 318 291 282 117 62 61 6 16 314 287 354 32 354 321 308 303 307 300 293 283 296 272 263 241 189 216 224 239 250 266 276 273 282 284 282 285 286 279 274 268 262 248 225 210 206 202 195 196 195 191 193 181 186 187 189 192 189 193
218 235 248 260 248 249 244 132 118 170 168 206 177 186 281 137 10 358 335 317 312 310 310 312 306 255 251 252 252 193 197 205 234 258 276 283 283 289 297 300 293 286 279 274 266 251 243 225 215 198 193 188 183 185 188 186 184 189 189 197 196 192 197
211 219 231 233 240 251 102 148 172 210 197 183 174 209 246 80 0 354 339 321 317 316 314 315 324 224 231 236 248 171 160 169 193 246 293 298 306 320 321 324 321 314 303 277 281 251 243 225 209 184 183 180 177 189 186 183 182 185 193 200 198 198 199
232 241 227 238 230 254 119 142 145 241 170 163 199 283 281 34 348 334 330 322 319 318 312 303 278 235 233 232 332 37 84 94 82 288 323 320 329 343 349 2 339 334 351 104 71 63 265 322 261 190 180 179 186 183 181 185 192 199 202 203 200 198 195
226 229 251 265 268 261 281 248 173 124 176 191 256 246 57 322 347 329 320 312 311 319 311 293 267 255 333 333 321 9 37 31 17 354 343 329 332 341 359 5 345 41 53 60 62 46 14 338 303 190 175 178 184 181 176 187 201 206 201 190 181 188 185
222 226 234 243 270 336 24 165 174 159 183 227 244 28 202 296 326 341 323 310 311 319 304 289 270 289 334 319 332 18 48 47 12 346 339 333 333 345 0 9 62 78 76 67 64 52 33 28 46 123 163 173 172 163 182 202 208 202 186 173 181 183 186
223 228 241 249 257 124 198 134 242 188 242 283 2 319 310 312 324 330 326 307 316 321 306 301 291 289 277 284 339 27 42 44 24 353 345 338 339 345 0 61 75 86 81 71 63 56 40 34 32 69 140 127 126 147 137 43 12 277 191 189 184 185 187
226 210 214 222 212 347 329 320 286 199 283 20 336 313 298 16 350 335 328 309 316 312 306 307 294 287 280 328 8 55 57 51 39 26 7 353 344 346 1 31 59 79 81 77 70 60 55 49 44 37 72 89 84 81 54 12 9 15 219 193 182 189 192
291 267 282 315 313 301 305 311 296 310 321 224 192 240 272 4 22 355 322 313 317 313 309 317 312 302 16 47 36 49 54 61 57 50 41 29 17 12 12 28 45 64 74 77 76 68 60 58 56 58 60 78 78 69 49 39 28 54 93 181 190 196 197
287 281 267 273 275 282 294 293 299 291 278 240 231 231 199 59 25 0 324 313 315 323 317 269 323 331 335 69 70 64 56 58 60 64 63 54 45 38 41 43 46 60 74 77 76 75 69 64 64 61 63 68 72 65 62 58 59 70 115 140 156 182 190
324 288 253 236 263 300 329 312 293 285 284 269 257 235 119 81 49 17 353 330 327 329 324 332 350 350 338 65 74 69 62 58 56 55 58 60 55 51 49 46 50 59 68 73 72 72 70 67 71 70 69 69 71 71 65 68 73 70 77 94 102 104 103
252 265 280 291 291 294 293 289 293 283 275 259 265 257 127 96 70 41 4 350 6 4 359 351 332 34 27 26 43 59 54 46 41 34 33 42 55 60 60 59 63 66 68 73 76 76 73 70 71 72 71 70 71 72 72 77 78 79 75 73 86 84 87
281 280 277 274 281 280 273 275 274 270 268 242 245 245 136 88 72 39 18 22 25 26 20 8 10 16 21 16 15 30 39 40 34 28 30 36 45 57 61 59 59 66 65 69 74 79 80 80 80 80 77 74 70 66 68 74 89 95 93 93 92 93 93
268 251 267 350 291 275 284 276 274 268 258 239 204 275 7 88 83 55 2 8 30 39 38 28 22 22 12 5 357 17 34 35 27 23 32 40 49 57 61 65 65 68 64 69 76 79 81 79 81 81 77 76 71 68 60 53 62 79 91 97 99 92 87
266 272 293 294 286 294 290 294 291 290 283 259 116 337 321 95 102 97 40 16 19 32 38 39 37 28 22 8 353 9 27 31 27 27 26 36 50 57 59 67 64 62 62 66 72 75 79 84 83 80 76 73 72 68 60 58 58 62 67 74 75 77 70
271 277 281 276 274 270 280 282 284 289 290 276 157 144 275 274 108 112 102 73 37 18 19 38 41 31 21 9 1 4 19 31 28 19 12 15 22 43 60 62 63 64 63 60 61 66 75 76 77 74 71 65 63 66 67 70 77 81 83 89 83 74 66
265 273 274 274 271 270 271 276 283 286 284 274 239 160 224 223 121 101 86 84 70 43 24 17 33 36 27 17 13 13 16 26 29 26 19 15 17 27 41 51 52 52 52 47 43 44 51 55 60 62 61 57 53 56 56 59 62 66 70 76 84 81 74